| time (UTC) | temp C | wind direction | speed KPH | gust KPH | rain 1hr cm | rain 24hr cm | rain mn cm | humidity % | barometer mb |
| 20260504184150 | 20 | 160 | 0.0 | 0.0 | 0.00 | 0.00 | 0.00 | 54 | 1008.3 |
| 20260504183650 | 20 | 160 | 0.0 | 0.0 | 0.00 | 0.00 | 0.00 | 54 | 1008.3 |
| 20260504183150 | 20 | 160 | 0.0 | 0.0 | 0.00 | 0.00 | 0.00 | 53 | 1008.3 |
| 20260504182649 | 20 | 160 | 0.0 | 0.0 | 0.00 | 0.00 | 0.00 | 53 | 1008.2 |
| 20260504182149 | 20 | 160 | 0.0 | 0.0 | 0.00 | 0.00 | 0.00 | 53 | 1008.3 |
| 20260504181651 | 20 | 160 | 0.0 | 0.0 | 0.00 | 0.00 | 0.00 | 53 | 1008.2 |
| 20260504181148 | 20 | 160 | 0.0 | 0.0 | 0.00 | 0.00 | 0.00 | 52 | 1008.2 |
| 20260504180648 | 21 | 160 | 0.0 | 0.0 | 0.00 | 0.00 | 0.00 | 52 | 1008.1 |
| 20260504180148 | 20 | 160 | 0.0 | 0.0 | 0.00 | 0.00 | 0.00 | 52 | 1008.1 |
| 20260504175648 | 21 | 160 | 0.0 | 0.0 | 0.00 | 0.00 | 0.00 | 51 | 1008.1 |
| 20260504175147 | 20 | 160 | 0.0 | 0.0 | 0.00 | 0.00 | 0.00 | 51 | 1008.1 |
| 20260504174647 | 21 | 160 | 0.0 | 0.0 | 0.00 | 0.00 | 0.00 | 51 | 1008.0 |
| 20260504174147 | 21 | 160 | 0.0 | 3.2 | 0.00 | 0.00 | 0.00 | 51 | 1008.0 |
| 20260504173646 | 21 | 64 | 0.0 | 3.2 | 0.00 | 0.00 | 0.00 | 51 | 1008.0 |
| 20260504173146 | 21 | 195 | 0.0 | 0.0 | 0.00 | 0.00 | 0.00 | 51 | 1008.0 |
| 20260504172646 | 21 | 195 | 0.0 | 3.2 | 0.00 | 0.00 | 0.00 | 51 | 1008.0 |
| 20260504172146 | 21 | 113 | 0.0 | 0.0 | 0.00 | 0.00 | 0.00 | 51 | 1007.9 |
| 20260504171645 | 21 | 113 | 0.0 | 0.0 | 0.00 | 0.00 | 0.00 | 50 | 1007.9 |
| 20260504171145 | 21 | 113 | 0.0 | 0.0 | 0.00 | 0.00 | 0.00 | 50 | 1008.0 |
| 20260504170645 | 21 | 113 | 0.0 | 0.0 | 0.00 | 0.00 | 0.00 | 50 | 1008.1 |
| 20260504170144 | 21 | 113 | 0.0 | 4.8 | 0.00 | 0.00 | 0.00 | 50 | 1008.0 |
| 20260504160141 | 22 | 87 | 1.6 | 3.2 | 0.00 | 0.00 | 0.00 | 50 | 1008.2 |
| 20260504151138 | 24 | 177 | 1.6 | 9.7 | 0.00 | 0.00 | 0.00 | 42 | 1008.2 |
| 20260504150638 | 24 | 64 | 1.6 | 11.3 | 0.00 | 0.00 | 0.00 | 42 | 1008.2 |
| 20260504150138 | 25 | 358 | 1.6 | 9.7 | 0.00 | 0.00 | 0.00 | 41 | 1008.2 |
| 20260504141135 | 23 | 23 | 0.0 | 8.0 | 0.00 | 0.00 | 0.00 | 44 | 1008.6 |
| 20260504140635 | 23 | 130 | 0.0 | 4.8 | 0.00 | 0.00 | 0.00 | 44 | 1008.8 |
| 20260504140134 | 23 | 26 | 3.2 | 8.0 | 0.00 | 0.00 | 0.00 | 44 | 1008.6 |
| 20260504130631 | 23 | 5 | 0.0 | 9.7 | 0.00 | 0.00 | 0.00 | 43 | 1009.0 |
| 20260504130131 | 23 | 327 | 0.0 | 8.0 | 0.00 | 0.00 | 0.00 | 43 | 1009.1 |
| 20260504120127 | 25 | 292 | 0.0 | 6.4 | 0.00 | 0.00 | 0.00 | 39 | 1009.2 |
| 20260504110624 | 22 | 87 | 0.0 | 11.3 | 0.00 | 0.00 | 0.00 | 44 | 1009.7 |
| 20260504110124 | 22 | 108 | 0.0 | 8.0 | 0.00 | 0.00 | 0.00 | 44 | 1009.8 |
| 20260504100121 | 21 | 292 | 0.0 | 3.2 | 0.00 | 0.00 | 0.00 | 46 | 1010.1 |
| 20260504090117 | 20 | 9 | 1.6 | 4.8 | 0.00 | 0.00 | 0.00 | 49 | 1010.4 |
| 20260504081615 | 18 | 43 | 0.0 | 3.2 | 0.00 | 0.00 | 0.00 | 52 | 1010.4 |
| 20260504081114 | 18 | 71 | 0.0 | 1.6 | 0.00 | 0.00 | 0.00 | 52 | 1010.5 |
| 20260504080614 | 18 | 19 | 0.0 | 3.2 | 0.00 | 0.00 | 0.00 | 52 | 1010.5 |
| 20260504080114 | 18 | 42 | 0.0 | 1.6 | 0.00 | 0.00 | 0.00 | 53 | 1010.4 |
| 20260504070110 | 16 | 357 | 1.6 | 3.2 | 0.00 | 0.00 | 0.00 | 60 | 1010.4 |
| 20260504060107 | 16 | 40 | 0.0 | 0.0 | 0.00 | 0.00 | 0.00 | 64 | 1010.1 |
| 20260504050604 | 14 | 40 | 0.0 | 0.0 | 0.00 | 0.00 | 0.00 | 66 | 1010.0 |
| 20260504050104 | 14 | 40 | 0.0 | 0.0 | 0.00 | 0.00 | 0.00 | 66 | 1009.9 |
| 20260504045603 | 14 | 40 | 0.0 | 0.0 | 0.00 | 0.00 | 0.00 | 66 | 1009.9 |
| 20260504045103 | 14 | 40 | 0.0 | 0.0 | 0.00 | 0.00 | 0.00 | 66 | 1009.9 |
| 20260504044603 | 14 | 40 | 0.0 | 0.0 | 0.00 | 0.00 | 0.00 | 66 | 1009.8 |
| 20260504044103 | 14 | 40 | 0.0 | 0.0 | 0.00 | 0.00 | 0.00 | 66 | 1009.8 |
| 20260504043602 | 14 | 40 | 0.0 | 0.0 | 0.00 | 0.00 | 0.00 | 66 | 1009.8 |
| 20260504043102 | 14 | 40 | 0.0 | 0.0 | 0.00 | 0.00 | 0.00 | 66 | 1009.8 |
| 20260504042602 | 14 | 40 | 0.0 | 0.0 | 0.00 | 0.00 | 0.00 | 66 | 1009.8 |
| 20260504042101 | 13 | 40 | 0.0 | 0.0 | 0.00 | 0.00 | 0.00 | 66 | 1009.7 |
| 20260504041601 | 13 | 40 | 0.0 | 0.0 | 0.00 | 0.00 | 0.00 | 66 | 1009.8 |
| 20260504041101 | 14 | 40 | 0.0 | 0.0 | 0.00 | 0.00 | 0.00 | 65 | 1009.8 |
| 20260504040601 | 14 | 40 | 0.0 | 0.0 | 0.00 | 0.00 | 0.00 | 65 | 1009.9 |
| 20260504040100 | 14 | 40 | 0.0 | 0.0 | 0.00 | 0.00 | 0.00 | 65 | 1009.9 |
| 20260504035600 | 14 | 40 | 0.0 | 0.0 | 0.00 | 0.00 | 0.00 | 65 | 1009.8 |
| 20260504035100 | 14 | 40 | 0.0 | 0.0 | 0.00 | 0.00 | 0.00 | 65 | 1009.9 |
| 20260504034559 | 14 | 40 | 0.0 | 0.0 | 0.00 | 0.00 | 0.00 | 65 | 1009.9 |
| 20260504034059 | 14 | 40 | 0.0 | 0.0 | 0.00 | 0.00 | 0.00 | 65 | 1009.8 |
| 20260504033559 | 14 | 40 | 0.0 | 0.0 | 0.00 | 0.00 | 0.00 | 64 | 1009.9 |
| 20260504033059 | 14 | 40 | 0.0 | 0.0 | 0.00 | 0.00 | 0.00 | 64 | 1009.8 |
| 20260504032558 | 14 | 40 | 0.0 | 0.0 | 0.00 | 0.00 | 0.00 | 64 | 1009.8 |
| 20260504032058 | 14 | 40 | 0.0 | 0.0 | 0.00 | 0.00 | 0.00 | 64 | 1009.9 |
| 20260504031558 | 15 | 40 | 0.0 | 0.0 | 0.00 | 0.00 | 0.00 | 64 | 1010.0 |
| 20260504031057 | 15 | 40 | 0.0 | 0.0 | 0.00 | 0.00 | 0.00 | 64 | 1010.0 |
| 20260504030557 | 14 | 40 | 0.0 | 0.0 | 0.00 | 0.00 | 0.00 | 64 | 1010.0 |
| 20260504030057 | 14 | 40 | 0.0 | 0.0 | 0.00 | 0.00 | 0.00 | 64 | 1010.0 |
| 20260504025557 | 15 | 40 | 0.0 | 0.0 | 0.00 | 0.00 | 0.00 | 64 | 1009.9 |
| 20260504025056 | 15 | 40 | 0.0 | 0.0 | 0.00 | 0.00 | 0.00 | 64 | 1009.9 |
| 20260504024556 | 15 | 40 | 0.0 | 0.0 | 0.00 | 0.00 | 0.00 | 64 | 1009.9 |
| 20260504024056 | 15 | 40 | 0.0 | 0.0 | 0.00 | 0.00 | 0.00 | 64 | 1009.9 |
| 20260504023555 | 15 | 40 | 0.0 | 0.0 | 0.00 | 0.00 | 0.00 | 63 | 1009.9 |
| 20260504023055 | 15 | 40 | 0.0 | 0.0 | 0.00 | 0.00 | 0.00 | 63 | 1010.0 |
| 20260504022555 | 15 | 40 | 0.0 | 0.0 | 0.00 | 0.00 | 0.00 | 63 | 1009.9 |
| 20260504022055 | 15 | 40 | 0.0 | 0.0 | 0.00 | 0.00 | 0.00 | 63 | 1009.9 |
| 20260504021554 | 15 | 40 | 0.0 | 0.0 | 0.00 | 0.00 | 0.00 | 63 | 1010.0 |
| 20260504021054 | 15 | 40 | 0.0 | 0.0 | 0.00 | 0.00 | 0.00 | 63 | 1010.0 |
| 20260504020554 | 15 | 40 | 0.0 | 0.0 | 0.00 | 0.00 | 0.00 | 63 | 1010.0 |
| 20260504020053 | 15 | 40 | 0.0 | 0.0 | 0.00 | 0.00 | 0.00 | 63 | 1010.0 |
| 20260504015553 | 15 | 40 | 0.0 | 0.0 | 0.00 | 0.00 | 0.00 | 63 | 1010.1 |
| 20260504015053 | 15 | 40 | 0.0 | 0.0 | 0.00 | 0.00 | 0.00 | 63 | 1010.0 |
| 20260504014553 | 15 | 40 | 0.0 | 0.0 | 0.00 | 0.00 | 0.00 | 63 | 1010.0 |
| 20260504014052 | 15 | 40 | 0.0 | 0.0 | 0.00 | 0.00 | 0.00 | 63 | 1010.0 |
| 20260504013552 | 16 | 40 | 0.0 | 0.0 | 0.00 | 0.00 | 0.00 | 62 | 1010.0 |
| 20260504013052 | 16 | 40 | 0.0 | 0.0 | 0.00 | 0.00 | 0.00 | 62 | 1010.0 |
| 20260504012551 | 16 | 40 | 0.0 | 0.0 | 0.00 | 0.00 | 0.00 | 62 | 1010.0 |
| 20260504012051 | 16 | 40 | 0.0 | 0.0 | 0.00 | 0.00 | 0.00 | 61 | 1010.0 |
| 20260504011551 | 16 | 40 | 0.0 | 0.0 | 0.00 | 0.00 | 0.00 | 61 | 1010.0 |
| 20260504011051 | 16 | 40 | 0.0 | 0.0 | 0.00 | 0.00 | 0.00 | 61 | 1009.9 |
| 20260504010550 | 16 | 40 | 0.0 | 0.0 | 0.00 | 0.00 | 0.00 | 61 | 1009.8 |
| 20260504010050 | 16 | 40 | 0.0 | 0.0 | 0.00 | 0.00 | 0.00 | 60 | 1009.7 |
| 20260504005550 | 17 | 40 | 0.0 | 0.0 | 0.00 | 0.00 | 0.00 | 60 | 1009.8 |
| 20260504005049 | 17 | 40 | 0.0 | 0.0 | 0.00 | 0.00 | 0.00 | 60 | 1009.8 |
| 20260504004549 | 17 | 40 | 0.0 | 0.0 | 0.00 | 0.00 | 0.00 | 60 | 1009.9 |
| 20260504004049 | 16 | 40 | 0.0 | 0.0 | 0.00 | 0.00 | 0.00 | 60 | 1009.9 |
| 20260504003549 | 17 | 40 | 0.0 | 0.0 | 0.00 | 0.00 | 0.00 | 59 | 1010.0 |
| 20260504003048 | 17 | 40 | 0.0 | 0.0 | 0.00 | 0.00 | 0.00 | 59 | 1009.9 |
| 20260504002548 | 17 | 40 | 0.0 | 0.0 | 0.00 | 0.00 | 0.00 | 59 | 1009.9 |
| 20260504002048 | 17 | 40 | 0.0 | 0.0 | 0.00 | 0.00 | 0.00 | 59 | 1009.9 |
| 20260504001547 | 17 | 40 | 0.0 | 0.0 | 0.00 | 0.00 | 0.00 | 59 | 1009.8 |
| 20260504001047 | 17 | 40 | 0.0 | 0.0 | 0.00 | 0.00 | 0.00 | 58 | 1009.9 |
| 20260504000547 | 17 | 40 | 0.0 | 0.0 | 0.00 | 0.00 | 0.00 | 58 | 1009.8 |
| 20260504000047 | 17 | 40 | 0.0 | 0.0 | 0.00 | 0.00 | 0.00 | 58 | 1009.8 |
| 20260503235546 | 17 | 40 | 0.0 | 0.0 | 0.00 | 0.00 | 0.00 | 58 | 1009.8 |
| 20260503235046 | 17 | 40 | 0.0 | 0.0 | 0.00 | 0.00 | 0.00 | 58 | 1009.8 |
| 20260503234546 | 17 | 40 | 0.0 | 0.0 | 0.00 | 0.00 | 0.00 | 58 | 1009.9 |
| 20260503234046 | 17 | 40 | 0.0 | 0.0 | 0.00 | 0.00 | 0.00 | 58 | 1009.9 |
| 20260503233545 | 17 | 40 | 0.0 | 0.0 | 0.00 | 0.00 | 0.00 | 58 | 1009.9 |
| 20260503233045 | 17 | 40 | 0.0 | 0.0 | 0.00 | 0.00 | 0.00 | 57 | 1009.9 |
| 20260503232545 | 17 | 40 | 0.0 | 0.0 | 0.00 | 0.00 | 0.00 | 57 | 1009.9 |
| 20260503232044 | 17 | 40 | 0.0 | 0.0 | 0.00 | 0.00 | 0.00 | 57 | 1009.9 |
| 20260503231544 | 17 | 40 | 0.0 | 0.0 | 0.00 | 0.00 | 0.00 | 57 | 1009.9 |
| 20260503231044 | 17 | 40 | 0.0 | 0.0 | 0.00 | 0.00 | 0.00 | 57 | 1009.9 |
| 20260503230544 | 17 | 40 | 0.0 | 0.0 | 0.00 | 0.00 | 0.00 | 57 | 1009.9 |
| 20260503230043 | 18 | 40 | 0.0 | 0.0 | 0.00 | 0.00 | 0.00 | 57 | 1009.9 |
| 20260503225543 | 18 | 40 | 0.0 | 0.0 | 0.00 | 0.00 | 0.00 | 57 | 1009.8 |
| 20260503225043 | 18 | 40 | 0.0 | 0.0 | 0.00 | 0.00 | 0.00 | 56 | 1009.9 |
| 20260503224542 | 18 | 40 | 0.0 | 0.0 | 0.00 | 0.00 | 0.00 | 56 | 1009.9 |
| 20260503224042 | 17 | 40 | 0.0 | 0.0 | 0.00 | 0.00 | 0.00 | 56 | 1009.9 |
| 20260503223542 | 18 | 40 | 0.0 | 0.0 | 0.00 | 0.00 | 0.00 | 56 | 1010.0 |
| 20260503223042 | 18 | 40 | 0.0 | 0.0 | 0.00 | 0.00 | 0.00 | 55 | 1010.0 |
| 20260503222541 | 18 | 40 | 0.0 | 0.0 | 0.00 | 0.00 | 0.00 | 56 | 1009.9 |
| 20260503222041 | 18 | 40 | 0.0 | 1.6 | 0.00 | 0.00 | 0.00 | 55 | 1009.9 |
| 20260503221541 | 18 | 45 | 0.0 | 0.0 | 0.00 | 0.00 | 0.00 | 55 | 1009.9 |
| 20260503221040 | 18 | 45 | 0.0 | 0.0 | 0.00 | 0.00 | 0.00 | 54 | 1009.8 |
| 20260503220540 | 18 | 14 | 0.0 | 0.0 | 0.00 | 0.00 | 0.00 | 54 | 1009.8 |
| 20260503220040 | 18 | 14 | 0.0 | 0.0 | 0.00 | 0.00 | 0.00 | 54 | 1009.9 |
| 20260503215540 | 18 | 14 | 0.0 | 0.0 | 0.00 | 0.00 | 0.00 | 54 | 1009.9 |
| 20260503215039 | 18 | 14 | 0.0 | 4.8 | 0.00 | 0.00 | 0.00 | 54 | 1009.8 |
| 20260503214539 | 18 | 15 | 0.0 | 0.0 | 0.00 | 0.00 | 0.00 | 53 | 1009.8 |
| 20260503214039 | 18 | 15 | 0.0 | 0.0 | 0.00 | 0.00 | 0.00 | 53 | 1009.7 |
| 20260503213538 | 18 | 15 | 0.0 | 0.0 | 0.00 | 0.00 | 0.00 | 53 | 1009.7 |
| 20260503213038 | 18 | 15 | 0.0 | 0.0 | 0.00 | 0.00 | 0.00 | 52 | 1009.7 |
| 20260503212538 | 18 | 15 | 0.0 | 0.0 | 0.00 | 0.00 | 0.00 | 52 | 1009.7 |
| 20260503212038 | 18 | 15 | 0.0 | 0.0 | 0.00 | 0.00 | 0.00 | 51 | 1009.7 |
| 20260503211537 | 18 | 15 | 0.0 | 1.6 | 0.00 | 0.00 | 0.00 | 51 | 1009.7 |
| 20260503211037 | 18 | 16 | 0.0 | 9.7 | 0.00 | 0.00 | 0.00 | 51 | 1009.7 |
| 20260503210537 | 18 | 22 | 0.0 | 6.4 | 0.00 | 0.00 | 0.00 | 51 | 1009.6 |
| 20260503210036 | 18 | 1 | 0.0 | 6.4 | 0.00 | 0.00 | 0.00 | 51 | 1009.7 |
| 20260503205536 | 19 | 352 | 3.2 | 3.2 | 0.00 | 0.00 | 0.00 | 50 | 1009.7 |
| 20260503205036 | 19 | 352 | 0.0 | 0.0 | 0.00 | 0.00 | 0.00 | 50 | 1009.7 |
| 20260503204536 | 19 | 352 | 0.0 | 0.0 | 0.00 | 0.00 | 0.00 | 50 | 1009.7 |
| 20260503204035 | 19 | 352 | 0.0 | 6.4 | 0.00 | 0.00 | 0.00 | 49 | 1009.7 |
| 20260503203535 | 19 | 2 | 0.0 | 4.8 | 0.00 | 0.00 | 0.00 | 49 | 1009.8 |
| 20260503203035 | 19 | 23 | 0.0 | 6.4 | 0.00 | 0.00 | 0.00 | 48 | 1009.8 |
| 20260503202535 | 19 | 11 | 0.0 | 12.9 | 0.00 | 0.00 | 0.00 | 47 | 1009.9 |
| 20260503202034 | 20 | 67 | 6.4 | 14.5 | 0.00 | 0.00 | 0.00 | 47 | 1010.0 |
| 20260503201534 | 20 | 330 | 0.0 | 6.4 | 0.00 | 0.00 | 0.00 | 47 | 1010.1 |
| 20260503201034 | 20 | 53 | 0.0 | 14.5 | 0.00 | 0.00 | 0.00 | 46 | 1010.2 |
| 20260503200533 | 20 | 139 | 8.0 | 20.9 | 0.00 | 0.00 | 0.00 | 45 | 1010.1 |
| 20260503200033 | 20 | 73 | 1.6 | 11.3 | 0.00 | 0.00 | 0.00 | 45 | 1010.1 |
| 20260503195533 | 20 | 199 | 3.2 | 19.3 | 0.00 | 0.00 | 0.00 | 44 | 1010.0 |
| 20260503195032 | 20 | 151 | 1.6 | 17.7 | 0.00 | 0.00 | 0.00 | 44 | 1009.8 |
| 20260503194532 | 21 | 196 | 6.4 | 11.3 | 0.00 | 0.00 | 0.00 | 42 | 1009.8 |
| 20260503194032 | 21 | 350 | 4.8 | 4.8 | 0.00 | 0.00 | 0.00 | 41 | 1009.7 |
| 20260503193532 | 20 | 18 | 1.6 | 12.9 | 0.00 | 0.00 | 0.00 | 41 | 1009.6 |
| 20260503193031 | 21 | 26 | 0.0 | 11.3 | 0.00 | 0.00 | 0.00 | 41 | 1009.4 |
| 20260503192531 | 21 | 271 | 1.6 | 14.5 | 0.00 | 0.00 | 0.00 | 41 | 1009.4 |
| 20260503192031 | 21 | 150 | 9.7 | 14.5 | 0.00 | 0.00 | 0.00 | 41 | 1009.3 |
| 20260503191531 | 21 | 53 | 1.6 | 11.3 | 0.00 | 0.00 | 0.00 | 42 | 1009.3 |
| 20260503191030 | 21 | 84 | 0.0 | 8.0 | 0.00 | 0.00 | 0.00 | 42 | 1009.2 |
| 20260503190530 | 21 | 137 | 4.8 | 6.4 | 0.00 | 0.00 | 0.00 | 42 | 1009.1 |
| 20260503190030 | 21 | 161 | 3.2 | 8.0 | 0.00 | 0.00 | 0.00 | 41 | 1009.0 |
| 20260503185529 | 21 | 33 | 0.0 | 4.8 | 0.00 | 0.00 | 0.00 | 41 | 1008.9 |
| 20260503185029 | 22 | 16 | 0.0 | 6.4 | 0.00 | 0.00 | 0.00 | 41 | 1008.9 |